Simultaneous Nadir Overpasses (SNOs) Predictions

Prediction of SNOs over PacNW region [( 10.00, 139.50) to ( 22.70, 165.60)] between AQUA and NPP Satellites:

Table of predicted SNOs over PacNW region for the next 30.0 days since TLE Epoch: 4/9/2022
Index Date (AQUA) Time (AQUA) AQUA Lat,Lon Date (NPP) Time (NPP) NPP Lat,Lon Distance(km) Time Diff (sec)
1 04/15/2022 02:39:07 22.64, 161.15 04/15/2022 02:36:31 22.11, 158.62 266.93 156
2 04/23/2022 03:27:44 22.68, 149.02 04/23/2022 03:27:12 22.07, 145.95 322.67 32
3 05/01/2022 02:37:21 22.68, 161.65 05/01/2022 02:36:22 22.07, 158.66 314.69 59
4 05/03/2022 16:16:05 10.06, 141.89 05/03/2022 16:12:36 7.33, 139.28 417.99 209
